Tracking 31027 objects as of 19-Jul-2025
HD Live streaming from Space Station
objects crossing your sky now

TIROS 9

Track TIROS 9 now!
10-day predictions
TIROS 9 is classified as:


NORAD ID: 978
Int'l Code: 1965-004A
Perigee: 710.4 km
Apogee: 2,566.9 km
Inclination: 96.4 °
Period: 118.9 minutes
Semi major axis: 8009 km
RCS: 0.8367 m2 (medium)
Launch date: January 22, 1965
Source: United States (US)
Launch site: AIR FORCE EASTERN TEST RANGE (AFETR)
Your satellite tracking list
STARLINK-1749
Track 1 satellite(s)




NASA's NSSDC Master Catalog

Two Line Element Set (TLE):
1 00978U 65004A   25199.55740249 -.00000111  00000-0 -12660-3 0  9994
2 00978  96.4016 146.6952 1158879  36.4351 331.0200 12.11110716671224
Source of the keplerian elements: AFSPC